When you browse on this site, cookies collect data to enhance your experience and personalize the content and advertising you see.
Visit our Privacy Policy to learn more. By continuing to use the site, you agree to this use of cookies and data.
  • In Austria
  • List of Countries
  • For 7 days
  • Water Temperature
  • Weather Map
  • News
  • Weather Widgets
  • user-avatar
    Login

    Hourly Weather Lubango

    Today, 5 June, Friday

    Time Temperature Precipitation Wind Pressure Humidity
    00:00 +13°C° 0 mm 1 mps 609 mmHg 51%
    01:00 +13°C° 0 mm 1 mps 609 mmHg 51%
    02:00 +13°C° 0 mm 1 mps 609 mmHg 50%
    03:00 +13°C° 0 mm 1 mps 609 mmHg 48%
    04:00 +13°C° 0 mm 1 mps 609 mmHg 47%
    05:00 +13°C° 0 mm 1 mps 609 mmHg 46%
    06:00 +13°C° 0 mm 1 mps 609 mmHg 44%
    07:00 +13°C° 0 mm 1 mps 610 mmHg 43%
    08:00 +16°C° 0 mm 1 mps 611 mmHg 37%
    09:00 +20°C° 0 mm 1 mps 612 mmHg 31%
    10:00 +23°C° 0 mm 1 mps 613 mmHg 25%
    11:00 +24°C° 0 mm 2 mps 613 mmHg 23%
    12:00 +25°C° 0 mm 2 mps 613 mmHg 21%
    13:00 +26°C° 0 mm 2 mps 612 mmHg 19%
    14:00 +26°C° 0 mm 2 mps 612 mmHg 20%
    15:00 +25°C° 0 mm 2 mps 611 mmHg 21%
    16:00 +25°C° 0 mm 2 mps 611 mmHg 22%
    17:00 +21°C° 0 mm 2 mps 610 mmHg 27%
    18:00 +18°C° 0 mm 2 mps 610 mmHg 33%
    19:00 +16°C° 0 mm 2 mps 609 mmHg 38%
    20:00 +15°C° 0 mm 2 mps 609 mmHg 41%
    21:00 +15°C° 0 mm 1 mps 609 mmHg 44%
    22:00 +14°C° 0 mm 1 mps 609 mmHg 47%
    23:00 +14°C° 0 mm 1 mps 609 mmHg 47%

    Tomorrow, 6 June, Saturday

    Time Temperature Precipitation Wind Pressure Humidity
    00:00 +14°C° 0 mm 1 mps 609 mmHg 46%
    01:00 +14°C° 0 mm 1 mps 609 mmHg 45%
    02:00 +14°C° 0 mm 1 mps 609 mmHg 45%
    03:00 +13°C° 0 mm 1 mps 609 mmHg 44%
    04:00 +13°C° 0 mm 1 mps 608 mmHg 43%
    05:00 +13°C° 0 mm 1 mps 609 mmHg 44%
    06:00 +13°C° 0 mm 1 mps 609 mmHg 45%
    07:00 +13°C° 0 mm 1 mps 610 mmHg 45%
    08:00 +16°C° 0 mm 2 mps 611 mmHg 39%
    09:00 +20°C° 0 mm 2 mps 612 mmHg 33%
    10:00 +24°C° 0 mm 2 mps 613 mmHg 27%
    11:00 +25°C° 0 mm 2 mps 613 mmHg 25%
    12:00 +26°C° 0 mm 2 mps 613 mmHg 23%
    13:00 +27°C° 0 mm 2 mps 612 mmHg 21%
    14:00 +26°C° 0 mm 2 mps 612 mmHg 21%
    15:00 +26°C° 0 mm 2 mps 612 mmHg 21%
    16:00 +26°C° 0 mm 2 mps 611 mmHg 21%
    17:00 +23°C° 0 mm 2 mps 610 mmHg 28%
    18:00 +20°C° 0 mm 1 mps 609 mmHg 34%
    19:00 +16°C° 0 mm 1 mps 609 mmHg 41%
    20:00 +16°C° 0 mm 1 mps 609 mmHg 42%
    21:00 +15°C° 0 mm 1 mps 609 mmHg 44%
    22:00 +15°C° 0 mm 1 mps 609 mmHg 46%
    23:00 +14°C° 0 mm 1 mps 609 mmHg 46%

    Day after tomorrow, 7 June, Sunday

    Time Temperature Precipitation Wind Pressure Humidity
    00:00 +14°C° 0 mm 1 mps 609 mmHg 47%
    01:00 +14°C° 0 mm 1 mps 609 mmHg 48%
    02:00 +14°C° 0 mm 1 mps 609 mmHg 49%
    03:00 +13°C° 0 mm 1 mps 608 mmHg 49%
    04:00 +13°C° 0 mm 2 mps 608 mmHg 50%
    05:00 +13°C° 0 mm 2 mps 609 mmHg 47%
    06:00 +13°C° 0 mm 2 mps 609 mmHg 45%
    07:00 +13°C° 0 mm 2 mps 609 mmHg 43%
    08:00 +16°C° 0 mm 3 mps 610 mmHg 38%
    09:00 +19°C° 0 mm 3 mps 611 mmHg 32%
    10:00 +21°C° 0 mm 4 mps 612 mmHg 26%
    11:00 +24°C° 0 mm 3 mps 612 mmHg 24%
    12:00 +25°C° 0 mm 3 mps 612 mmHg 23%
    13:00 +26°C° 0 mm 3 mps 612 mmHg 21%
    14:00 +26°C° 0 mm 2 mps 611 mmHg 21%
    15:00 +26°C° 0 mm 2 mps 611 mmHg 21%
    16:00 +25°C° 0 mm 2 mps 610 mmHg 21%
    17:00 +23°C° 0 mm 2 mps 610 mmHg 26%
    18:00 +19°C° 0 mm 2 mps 609 mmHg 31%
    19:00 +16°C° 0 mm 2 mps 608 mmHg 36%
    20:00 +16°C° 0 mm 2 mps 608 mmHg 35%
    21:00 +15°C° 0 mm 1 mps 608 mmHg 35%
    22:00 +15°C° 0 mm 1 mps 608 mmHg 35%
    23:00 +14°C° 0 mm 1 mps 608 mmHg 35%

    8 June, Monday

    Time Temperature Precipitation Wind Pressure Humidity
    00:00 +14°C° 0 mm 1 mps 608 mmHg 35%
    01:00 +14°C° 0 mm 2 mps 608 mmHg 36%
    02:00 +14°C° 0 mm 2 mps 608 mmHg 36%
    03:00 +13°C° 0 mm 2 mps 608 mmHg 36%
    04:00 +13°C° 0 mm 2 mps 607 mmHg 37%
    05:00 +13°C° 0 mm 2 mps 608 mmHg 37%
    06:00 +13°C° 0 mm 2 mps 608 mmHg 38%
    07:00 +13°C° 0 mm 2 mps 608 mmHg 38%
    08:00 +16°C° 0 mm 2 mps 609 mmHg 33%
    09:00 +19°C° 0 mm 2 mps 610 mmHg 28%
    10:00 +23°C° 0 mm 2 mps 612 mmHg 23%
    11:00 +24°C° 0 mm 2 mps 612 mmHg 22%
    12:00 +26°C° 0 mm 2 mps 611 mmHg 21%
    13:00 +27°C° 0 mm 2 mps 611 mmHg 20%
    14:00 +26°C° 0 mm 2 mps 611 mmHg 20%
    15:00 +26°C° 0 mm 2 mps 611 mmHg 21%
    16:00 +25°C° 0 mm 3 mps 610 mmHg 22%
    17:00 +21°C° 0 mm 2 mps 609 mmHg 30%
    18:00 +18°C° 0 mm 2 mps 609 mmHg 39%
    19:00 +15°C° 0 mm 2 mps 608 mmHg 47%
    20:00 +15°C° 0 mm 2 mps 608 mmHg 47%
    21:00 +14°C° 0 mm 1 mps 608 mmHg 46%
    22:00 +14°C° 0 mm 1 mps 609 mmHg 46%
    23:00 +14°C° 0 mm 1 mps 608 mmHg 45%

    9 June, Tuesday

    Time Temperature Precipitation Wind Pressure Humidity
    00:00 +14°C° 0 mm 1 mps 608 mmHg 44%
    01:00 +13°C° 0 mm 1 mps 608 mmHg 44%
    02:00 +13°C° 0 mm 1 mps 608 mmHg 43%
    03:00 +13°C° 0 mm 1 mps 608 mmHg 42%
    04:00 +13°C° 0 mm 1 mps 607 mmHg 41%
    05:00 +13°C° 0 mm 1 mps 607 mmHg 42%
    06:00 +13°C° 0 mm 1 mps 608 mmHg 42%
    07:00 +13°C° 0 mm 1 mps 608 mmHg 43%
    08:00 +16°C° 0 mm 1 mps 609 mmHg 37%
    09:00 +20°C° 0 mm 1 mps 610 mmHg 31%
    10:00 +23°C° 0 mm 1 mps 612 mmHg 24%
    11:00 +25°C° 0 mm 1 mps 612 mmHg 23%
    12:00 +26°C° 0 mm 1 mps 611 mmHg 22%
    13:00 +27°C° 0 mm 1 mps 611 mmHg 21%
    14:00 +26°C° 0 mm 2 mps 611 mmHg 22%
    15:00 +25°C° 0 mm 2 mps 610 mmHg 23%
    16:00 +25°C° 0 mm 3 mps 610 mmHg 25%
    17:00 +21°C° 0 mm 3 mps 609 mmHg 32%
    18:00 +18°C° 0 mm 2 mps 608 mmHg 40%
    19:00 +15°C° 0 mm 2 mps 608 mmHg 47%
    20:00 +14°C° 0 mm 2 mps 608 mmHg 47%
    21:00 +14°C° 0 mm 2 mps 608 mmHg 47%
    22:00 +13°C° 0 mm 1 mps 609 mmHg 47%
    23:00 +13°C° 0 mm 1 mps 608 mmHg 45%

    10 June, Wednesday

    Time Temperature Precipitation Wind Pressure Humidity
    00:00 +13°C° 0 mm 1 mps 608 mmHg 44%
    01:00 +13°C° 0 mm 1 mps 608 mmHg 43%
    02:00 +13°C° 0 mm 1 mps 608 mmHg 42%
    03:00 +13°C° 0 mm 1 mps 608 mmHg 41%
    04:00 +13°C° 0 mm 1 mps 608 mmHg 40%
    05:00 +13°C° 0 mm 1 mps 608 mmHg 40%
    06:00 +13°C° 0 mm 1 mps 608 mmHg 40%
    07:00 +13°C° 0 mm 1 mps 608 mmHg 40%
    08:00 +16°C° 0 mm 2 mps 610 mmHg 35%
    09:00 +19°C° 0 mm 2 mps 611 mmHg 29%
    10:00 +23°C° 0 mm 2 mps 612 mmHg 24%
    11:00 +24°C° 0 mm 2 mps 612 mmHg 23%
    12:00 +25°C° 0 mm 1 mps 612 mmHg 22%
    13:00 +26°C° 0 mm 1 mps 611 mmHg 21%
    14:00 +26°C° 0 mm 1 mps 611 mmHg 21%
    15:00 +25°C° 0 mm 1 mps 610 mmHg 22%
    16:00 +25°C° 0 mm 1 mps 610 mmHg 22%
    17:00 +21°C° 0 mm 2 mps 609 mmHg 27%
    18:00 +18°C° 0 mm 2 mps 608 mmHg 32%
    19:00 +15°C° 0 mm 2 mps 607 mmHg 37%
    20:00 +15°C° 0 mm 2 mps 607 mmHg 38%
    21:00 +14°C° 0 mm 2 mps 608 mmHg 38%
    22:00 +14°C° 0 mm 1 mps 608 mmHg 38%
    23:00 +14°C° 0 mm 1 mps 608 mmHg 38%
    Show more